COSMOS 2475 (743) (37869 NORAD) Tracking and Keplerian Element Data

This shows tracking and keplerian element data for the satellite.

Feedback or suggestion? Click here.




ElementValue
Catalog37869
NameCOSMOS 2475 (743)
Epoch Orbit10314
Epoch Day34.64817413
Epoch Year2025
RAAN89.8301
Inclination65.0072
Eccentricity0.0027044
Argument of Perigee253.0533
Mean Anonmoly266.3823
Mean Motion2.13101498
Decay Rate-3E-08
L11 37869U 11064C 25034.64817413 -.00000003 00000+0 00000+0 0 9995
L22 37869 65.0072 89.8301 0027044 253.0533 266.3823 2.13101498103140



Live tracking and technical data element details for COSMOS 2475 (743) (NORAD 37869). COSMOS 2475 (743) can be tracked NOW for your location showing map with azimuth and elevation plus other details from your city location.







IsCatalogInMostPopularTable: catalog: 37869, numindb: 346
Update: records affected: 1



GetName: 37869 COSMOS 2475 (743)

Hit Count: updated at: Thu, 15 May 2025 18:44:38 GMT